sat.trackr.live / text

‹ back to catalog

STARLINK-36847

NORAD 67910 · 2026-036G

PAYLOAD ACTIVE UNKNOWN

§ Identity

Operator
Country
US
Launch date
2026-02-22
Launch site
AFETR
Launch vehicle
Mass (kg)
RCS (m²)

Purposes: comms

External: N2YO · Heavens-Above · Gunter

§ Orbital elements

Epoch: 2026-09-19T23:19:10.740576Z

Period
94.27 min
Inclination
43.0005°
Eccentricity
0.0001365
Mean motion
15.27591597 rev/d
Perigee alt
482.1 km
Apogee alt
484.0 km
Semi-major
6,861.2 km
B*
4.7945e-4
RAAN
228.1864°
Arg perigee
264.5498°
Mean anomaly
95.5198°
Rev number
3,343

§ Raw data

STARLINK-368471 67910U 26036G   26262.97165209  .00012959  00000+0  47945-3 0  99942 67910  43.0005 228.1864 0001365 264.5498  95.5198 15.27591597 33432

JSON: /api/v1/satellites/67910 · /tle

For live sub-satellite position, see the globe view (requires WebGL).

§ Visibility from observer

Set your observer location to see the next 7 days of passes ≥ 10°. The values pass through the URL so the page stays shareable.

No JS? Fill the form by hand. The geolocation button needs JavaScript.